Location: Amarillo Post Office Jordan Station
(35.1907°N, 101.9342°W)
Time: 13:45:09
(UTC+00:00)

NOSS 3-2 (A) - Pass Details

Date: 24 January 2021
Orbit: 783 x 1425 km, 63.4° (Epoch: 03 March)

Event Time Altitude Azimuth Distance (km) Brightness Sun altitude
Exits shadow 12:29:55 - 221° (SW) 3,078 5.8 -16.8°
Reaches altitude 10° 12:31:45 10° 224° (SW) 2,380 5.2 -16.4°
Maximum altitude 12:37:07 61° 304° (NW) 970 3.2 -15.4°
Drops below altitude 10° 12:43:12 10° 25° (NNE) 2,684 6.0 -14.2°
Sets 12:45:59 0° 29° (NNE) 3,731 6.8 -13.6°
